Wind_Speed
17 18 14 13 14 11 6 10 3 8 20 23 17 19 19 18 13 17 29 31 30 31 36 36 37 38 39 40 39 39 36 29 29 30 30 33 36 34 33 34 33 32 28 31 34 36 37 37 36
18 18 16 18 17 13 4 10 15 22 17 20 16 23 20 10 22 32 33 35 40 36 39 37 36 38 38 40 38 35 30 26 28 31 34 34 34 35 34 31 31 29 28 29 30 32 36 37 38
20 20 20 21 18 9 11 14 15 22 31 15 27 26 27 22 32 28 28 34 38 36 38 37 38 40 39 40 37 33 28 26 29 33 31 32 33 35 34 32 31 30 28 26 27 29 32 36 38
27 26 31 25 21 14 5 22 21 6 9 25 26 33 19 29 33 33 27 33 40 39 38 39 39 39 38 38 34 32 29 29 33 31 31 32 32 32 34 33 33 34 36 32 28 26 30 33 35
36 38 36 32 26 18 17 17 28 18 21 11 18 18 36 32 33 35 32 34 40 39 37 40 41 38 36 33 31 30 29 31 33 32 34 34 33 36 39 39 37 37 36 37 37 32 30 30 32
42 45 40 35 29 17 14 10 21 32 34 25 18 23 20 27 44 45 38 38 43 44 38 36 41 38 34 30 27 27 31 32 32 33 34 35 36 38 39 40 38 36 35 34 33 31 34 35 31
43 48 48 34 30 19 15 17 20 22 20 13 32 21 26 36 46 42 37 44 46 49 51 41 36 32 28 25 25 30 32 33 31 33 34 35 38 39 36 37 35 33 31 30 29 29 30 31 35
40 45 43 37 37 32 29 27 20 21 23 21 31 33 38 40 42 43 47 38 30 40 53 52 27 30 26 27 29 32 32 31 34 34 36 38 38 37 36 34 35 33 29 26 26 26 28 29 29
43 47 47 38 38 36 30 35 32 23 21 28 33 39 39 45 45 43 47 42 41 42 47 51 39 26 31 29 31 32 30 32 35 36 37 39 37 34 33 32 32 31 28 28 27 27 28 29 28
48 49 45 43 41 40 41 31 25 26 26 26 29 29 23 35 39 42 47 48 43 37 40 51 45 28 32 34 31 32 31 35 36 36 36 37 34 34 35 33 32 32 30 29 30 30 31 30 29
52 52 44 45 51 46 41 34 35 33 30 32 34 39 37 51 52 46 47 47 44 37 42 39 50 35 34 32 32 30 33 36 34 34 36 35 34 33 33 33 30 28 28 34 34 34 31 29 29
59 56 56 51 49 45 48 47 51 48 45 42 41 43 44 51 56 47 49 47 45 39 34 38 47 39 32 32 33 29 31 32 33 34 36 36 35 35 33 32 33 33 34 34 34 32 30 29 27
62 56 57 52 50 51 51 52 52 54 48 47 51 51 57 57 55 52 49 54 51 37 39 32 43 39 31 34 34 29 31 31 31 33 35 34 34 34 34 32 32 32 35 33 31 31 30 29 28
60 59 58 60 60 59 57 60 56 51 54 55 59 63 54 52 50 56 53 53 47 36 39 37 40 38 32 31 34 35 31 32 32 33 37 33 31 35 33 34 34 33 36 35 32 32 32 30 28
73 75 70 65 57 57 47 55 55 50 49 50 49 54 52 49 49 48 48 49 43 37 39 38 38 40 35 30 31 35 31 33 33 33 37 33 33 36 34 36 37 37 36 32 33 32 29 24 19
68 69 68 54 51 41 47 58 46 40 41 47 44 41 45 43 43 47 49 48 45 41 39 42 38 42 36 31 27 32 30 30 34 32 35 35 36 38 35 38 40 39 34 32 33 33 31 30 28
66 67 61 39 43 48 48 52 38 36 39 42 35 37 40 41 43 47 50 49 47 47 42 41 40 42 36 31 27 31 33 31 34 32 35 36 36 39 36 37 38 37 35 36 35 34 34 32 32
56 54 41 49 45 45 44 42 42 42 42 38 36 46 35 40 39 44 50 47 39 45 45 41 37 42 31 26 28 31 33 35 31 34 38 41 38 39 38 40 42 42 41 41 37 37 35 33 30
53 50 51 49 44 42 47 41 39 36 42 40 43 43 43 43 44 41 43 34 40 42 41 32 34 37 26 25 29 29 30 31 31 35 42 41 43 43 43 44 45 41 40 40 39 37 34 32 32
56 59 57 49 50 45 40 39 40 39 40 44 44 48 46 41 38 36 37 39 40 39 31 26 33 26 24 26 26 25 28 31 34 40 44 43 42 43 44 42 40 39 38 35 32 29 29 29 28
55 56 50 49 48 47 36 44 44 36 40 42 46 46 34 36 34 34 35 34 35 27 26 29 25 23 24 27 24 26 29 33 36 41 43 41 40 42 39 38 37 33 29 27 28 27 26 24 23
59 52 50 50 50 53 37 49 36 36 37 39 36 34 28 30 28 26 29 29 28 21 27 24 20 21 23 26 27 28 30 36 39 41 40 41 37 32 32 30 26 22 21 21 19 18 19 21 22
50 47 46 45 45 46 48 46 28 33 36 34 26 26 30 30 25 24 25 28 23 24 20 16 18 22 25 28 30 32 33 35 38 38 37 35 34 30 27 20 18 16 17 17 17 14 11 10 15
53 50 47 45 44 46 38 40 35 26 28 19 21 28 30 27 24 24 23 25 15 19 17 18 21 23 27 31 33 31 32 34 33 34 30 31 29 25 17 16 14 16 17 17 17 14 6 0 5
59 50 47 46 49 41 27 38 32 25 18 15 24 27 23 23 20 22 16 12 16 17 18 21 22 25 28 27 26 26 28 29 30 27 27 28 21 14 13 13 13 15 15 14 13 12 11 5 3
62 61 59 56 47 42 36 37 27 17 13 18 19 17 18 12 13 15 15 14 17 17 19 18 21 22 23 24 22 22 25 25 22 27 23 21 13 12 10 10 12 12 11 10 9 10 7 4 3
57 58 52 47 32 35 21 22 28 12 12 17 17 16 15 10 13 11 13 17 17 17 15 18 20 20 21 20 20 21 20 20 21 23 20 13 10 9 8 7 9 8 6 7 13 10 8 3 3
53 53 51 51 40 27 21 14 15 10 17 18 18 17 11 11 13 14 14 14 12 12 16 16 17 19 19 17 17 16 18 19 20 19 13 10 8 8 7 6 7 5 5 8 12 12 10 3 4
63 58 59 43 46 31 20 16 21 21 24 15 24 24 10 8 11 11 11 10 11 14 14 14 18 17 13 13 12 15 17 17 18 11 9 8 6 6 5 4 5 4 4 8 10 10 11 4 6
58 59 58 56 50 45 26 22 22 26 15 13 21 24 11 11 11 8 8 10 13 15 11 14 12 11 11 9 13 14 13 14 11 6 7 8 5 5 4 1 1 3 4 6 6 8 9 3 4
Wind_Direction
227 229 229 245 245 246 266 296 209 240 273 254 262 293 294 309 304 279 298 309 301 298 301 308 313 318 317 312 315 317 325 324 319 317 316 317 316 314 310 304 299 294 283 273 271 271 264 262 260
229 233 231 235 242 254 352 279 241 225 212 238 290 295 299 264 268 298 309 311 307 306 307 313 316 319 315 311 317 318 322 323 319 318 319 319 315 310 304 299 298 299 294 285 275 270 267 261 260
237 240 247 243 242 244 235 281 246 265 265 249 294 293 293 293 289 298 308 303 303 310 313 317 320 317 314 312 318 323 324 322 319 317 318 317 314 310 307 303 295 290 291 285 278 272 267 264 260
249 247 251 249 249 221 192 294 291 290 280 289 297 303 278 282 294 302 309 301 302 310 315 319 320 317 314 315 319 322 325 321 322 318 317 316 314 311 306 303 297 288 282 279 279 276 267 264 263
240 251 249 247 247 241 223 226 249 297 274 299 293 285 301 293 289 302 304 299 297 300 316 325 323 320 316 319 319 321 322 321 322 318 316 313 313 311 309 305 302 294 288 284 277 271 267 268 264
249 250 246 248 243 244 256 255 258 255 256 260 289 282 271 283 295 304 304 308 307 307 311 331 325 321 320 322 319 321 321 320 320 315 313 311 312 314 313 308 306 300 294 287 281 274 267 263 262
254 251 241 241 235 210 218 259 265 252 260 271 259 254 257 275 291 291 296 309 309 318 315 322 323 322 323 321 320 322 320 318 317 312 309 309 313 312 310 308 308 305 297 290 284 280 272 262 257
266 263 254 252 238 230 202 224 266 272 283 240 264 266 269 276 281 289 294 296 299 304 306 311 322 313 318 320 321 321 318 319 316 313 310 310 312 309 310 313 310 307 300 294 290 284 280 274 264
258 260 267 259 247 248 237 226 231 277 252 252 260 269 280 279 285 293 296 304 310 312 313 311 318 323 319 318 320 317 318 318 318 314 313 316 317 313 309 307 305 306 302 300 296 289 284 277 271
256 260 268 264 258 254 250 253 267 264 268 276 272 281 288 283 277 280 284 293 302 307 309 310 313 319 315 312 318 318 318 317 315 312 314 317 316 313 310 306 302 304 304 299 295 289 287 279 273
253 266 266 259 258 254 249 247 249 247 261 268 268 271 276 278 287 280 287 291 296 305 302 303 306 319 307 311 310 316 317 317 313 312 314 316 314 311 308 305 303 301 301 301 297 289 286 275 272
251 262 261 257 254 255 255 259 251 248 253 259 265 275 276 282 287 285 285 289 291 297 295 298 302 316 306 306 308 310 316 315 311 310 313 314 314 312 310 308 308 309 305 298 291 282 279 276 270
257 265 254 260 254 257 259 258 259 260 262 265 262 270 277 282 280 279 282 284 289 291 289 286 297 310 304 308 308 306 314 309 304 307 309 313 317 313 309 304 303 305 308 302 294 289 282 273 269
259 256 251 264 259 263 266 265 269 264 269 274 275 275 275 277 273 277 279 284 286 282 285 292 298 300 299 307 304 306 307 304 304 306 307 313 317 312 310 307 304 301 304 301 296 291 285 272 267
255 259 256 257 258 262 265 271 269 275 281 277 275 272 273 274 276 276 279 284 279 275 286 289 292 294 296 302 300 302 303 305 303 304 308 314 318 314 312 308 304 303 300 297 296 292 293 293 264
250 252 254 254 265 274 268 274 277 283 281 283 289 283 275 267 270 277 276 279 276 277 281 290 293 291 291 296 294 298 299 296 298 305 316 317 318 311 308 305 304 302 301 298 295 292 287 282 271
250 252 256 267 266 268 261 266 282 283 284 289 293 291 281 274 276 267 271 275 279 281 281 285 289 288 290 289 296 301 296 294 298 307 313 312 312 307 304 303 303 300 297 296 291 289 286 281 272
254 258 262 260 264 269 270 269 281 283 283 281 281 279 289 285 275 271 275 276 282 281 280 283 281 279 286 290 300 296 293 298 307 309 314 310 309 302 302 302 303 298 294 294 289 284 279 272 266
254 256 257 259 267 268 272 272 279 272 269 273 267 282 281 275 265 269 284 279 273 274 276 271 270 274 282 296 292 286 289 295 310 312 310 308 306 307 303 305 304 299 296 294 289 283 277 269 261
246 249 253 259 261 261 258 257 262 275 281 282 286 276 282 282 280 275 273 268 266 272 268 264 262 277 285 290 285 288 297 304 310 307 305 303 308 306 303 303 299 299 297 294 288 281 273 265 257
242 245 250 254 256 255 255 263 268 277 277 281 276 282 286 282 278 273 266 267 268 272 256 255 267 274 276 287 292 297 300 307 306 301 299 306 307 305 304 302 303 303 301 298 292 281 270 263 253
238 243 247 251 254 257 258 267 273 278 283 282 288 297 302 290 280 267 260 259 268 255 248 257 270 274 278 291 299 297 292 297 298 298 305 304 304 301 305 306 307 309 311 313 308 290 272 258 245
234 235 240 246 253 257 255 264 277 273 277 289 296 295 284 277 271 259 253 258 260 244 243 264 274 279 288 290 294 283 288 298 295 298 302 304 307 310 309 306 308 310 325 327 334 322 282 264 239
226 228 231 238 245 250 251 258 266 281 287 292 292 282 284 276 266 257 248 257 259 238 258 271 276 283 281 285 280 288 294 293 294 299 301 300 305 305 304 308 311 313 320 328 338 355 1 259 189
226 221 225 230 234 249 253 257 274 277 275 287 280 287 280 273 265 258 262 253 235 253 262 271 276 272 274 281 291 293 291 293 296 293 302 302 302 303 304 307 317 315 319 332 340 356 23 61 151
223 224 226 230 237 248 252 262 292 273 269 288 279 273 272 289 260 261 257 243 248 257 266 270 271 281 285 286 294 288 288 290 292 299 304 300 291 299 305 313 315 314 326 351 358 10 24 47 127
217 206 222 226 239 243 243 292 299 276 278 270 245 262 269 252 242 248 245 242 249 256 265 278 289 286 283 288 287 285 285 287 292 300 295 296 290 291 293 312 311 311 326 348 341 354 355 29 138
200 211 207 216 214 226 244 235 240 251 277 277 233 263 270 250 233 231 238 242 258 277 281 286 286 286 290 283 281 280 288 291 299 292 296 288 288 285 270 298 315 308 327 5 19 15 35 80 155
206 203 208 211 218 206 198 229 238 238 247 271 247 263 230 237 230 228 238 266 287 289 289 285 288 293 280 279 279 289 287 298 295 288 292 291 295 271 253 281 325 303 347 5 356 1 18 45 144
203 206 201 205 212 208 197 227 259 253 248 252 228 243 226 243 232 237 268 292 300 297 275 281 291 283 285 280 290 287 296 294 275 281 301 293 286 248 230 268 316 310 342 336 326 4 8 105 110
Height
5888 5890 5889 5891 5894 5893 5895 5897 5899 5898 5898 5893 5895 5895 5894 5892 5890 5886 5883 5883 5880 5877 5873 5870 5868 5864 5861 5857 5857 5855 5856 5853 5851 5850 5847 5846 5845 5843 5840 5838 5838 5838 5837 5838 5838 5837 5838 5838 5839
5885 5886 5886 5887 5891 5891 5891 5894 5897 5892 5881 5888 5892 5891 5889 5889 5884 5880 5879 5876 5870 5871 5867 5867 5864 5860 5858 5855 5853 5853 5852 5850 5848 5846 5843 5840 5839 5837 5835 5834 5833 5832 5831 5831 5832 5831 5830 5832 5833
5881 5882 5883 5884 5885 5889 5888 5887 5887 5890 5885 5887 5889 5886 5883 5881 5877 5880 5878 5871 5866 5867 5864 5863 5861 5857 5854 5850 5849 5848 5847 5846 5844 5840 5838 5835 5833 5832 5830 5828 5828 5828 5827 5826 5826 5825 5824 5824 5825
5876 5878 5880 5881 5883 5888 5888 5888 5886 5884 5887 5883 5883 5884 5881 5874 5874 5873 5874 5869 5862 5864 5863 5859 5856 5852 5848 5846 5844 5843 5841 5840 5838 5835 5832 5830 5829 5827 5825 5822 5820 5819 5820 5820 5819 5818 5818 5818 5819
5871 5873 5874 5876 5880 5884 5884 5887 5882 5878 5886 5884 5882 5878 5876 5870 5864 5868 5868 5865 5859 5857 5861 5856 5850 5846 5843 5842 5841 5839 5837 5836 5833 5830 5827 5825 5824 5821 5818 5816 5814 5811 5811 5811 5811 5811 5810 5811 5812
5866 5867 5869 5871 5876 5880 5883 5886 5880 5880 5882 5883 5882 5877 5872 5863 5857 5859 5859 5858 5853 5848 5850 5855 5847 5843 5840 5840 5838 5836 5835 5832 5830 5826 5823 5821 5818 5815 5811 5808 5806 5804 5803 5802 5802 5802 5802 5804 5805
5862 5860 5861 5865 5870 5874 5882 5880 5878 5875 5876 5880 5870 5876 5870 5864 5856 5854 5859 5854 5850 5844 5839 5848 5845 5841 5839 5837 5835 5833 5831 5829 5826 5823 5819 5817 5813 5810 5806 5803 5800 5799 5797 5795 5795 5794 5794 5795 5796
5853 5852 5856 5860 5861 5865 5871 5871 5870 5869 5870 5873 5867 5868 5867 5866 5859 5851 5853 5853 5855 5850 5836 5835 5847 5839 5835 5833 5831 5829 5827 5824 5821 5818 5815 5812 5809 5805 5801 5799 5794 5793 5792 5790 5789 5788 5788 5787 5788
5846 5843 5843 5851 5856 5860 5863 5862 5864 5862 5861 5861 5864 5858 5859 5857 5856 5849 5844 5843 5848 5845 5838 5831 5834 5838 5831 5829 5828 5824 5822 5820 5817 5813 5810 5806 5803 5799 5797 5795 5792 5789 5787 5785 5784 5782 5781 5781 5781
5834 5835 5840 5847 5850 5852 5855 5856 5858 5857 5854 5853 5854 5854 5855 5851 5849 5846 5842 5843 5842 5845 5841 5825 5827 5832 5829 5824 5823 5819 5817 5815 5812 5809 5805 5801 5797 5794 5789 5788 5786 5784 5781 5780 5778 5776 5775 5774 5774
5827 5826 5837 5839 5841 5845 5846 5847 5848 5849 5849 5851 5846 5845 5849 5844 5842 5840 5839 5838 5837 5840 5835 5832 5819 5825 5824 5820 5817 5815 5812 5810 5807 5804 5800 5797 5793 5790 5786 5782 5780 5779 5776 5772 5770 5769 5768 5767 5767
5816 5821 5826 5830 5832 5834 5837 5839 5838 5838 5840 5842 5842 5839 5840 5837 5834 5835 5832 5831 5832 5834 5833 5824 5816 5820 5817 5814 5810 5811 5809 5806 5802 5799 5795 5792 5788 5784 5780 5776 5771 5770 5770 5766 5763 5762 5761 5760 5760
5807 5814 5815 5820 5822 5825 5828 5826 5829 5829 5834 5832 5834 5833 5831 5829 5827 5826 5826 5822 5827 5827 5823 5823 5814 5815 5812 5807 5804 5803 5802 5801 5798 5795 5793 5788 5783 5779 5775 5772 5769 5765 5760 5758 5757 5755 5754 5753 5753
5803 5802 5804 5808 5811 5814 5815 5815 5819 5822 5824 5826 5824 5820 5821 5819 5818 5815 5818 5817 5818 5817 5815 5813 5809 5811 5808 5802 5798 5796 5794 5793 5791 5788 5785 5783 5779 5773 5769 5765 5763 5760 5756 5753 5751 5750 5747 5746 5746
5789 5789 5793 5796 5803 5802 5810 5803 5806 5814 5816 5812 5811 5809 5809 5809 5809 5807 5810 5809 5806 5809 5810 5808 5805 5804 5802 5798 5794 5791 5789 5785 5784 5782 5778 5776 5774 5768 5763 5760 5755 5753 5751 5749 5745 5743 5742 5740 5741
5775 5778 5777 5789 5796 5802 5804 5788 5800 5806 5804 5799 5800 5799 5798 5801 5800 5802 5801 5799 5797 5801 5803 5800 5800 5797 5796 5792 5789 5786 5785 5782 5779 5777 5773 5770 5767 5763 5758 5754 5750 5746 5743 5742 5739 5736 5736 5735 5735
5763 5763 5773 5787 5793 5789 5790 5786 5795 5796 5793 5791 5791 5789 5790 5794 5794 5792 5791 5791 5790 5792 5794 5794 5793 5788 5789 5785 5784 5781 5779 5778 5774 5770 5768 5765 5762 5757 5753 5749 5744 5739 5736 5734 5731 5729 5727 5727 5726
5758 5765 5771 5769 5782 5783 5780 5780 5782 5787 5785 5784 5785 5783 5784 5784 5784 5782 5779 5782 5784 5782 5784 5785 5784 5781 5782 5779 5777 5777 5774 5773 5771 5765 5761 5758 5755 5749 5745 5741 5736 5731 5727 5724 5722 5720 5718 5717 5717
5753 5757 5756 5762 5772 5775 5771 5772 5775 5779 5777 5777 5777 5777 5776 5774 5772 5773 5775 5774 5772 5772 5774 5776 5776 5773 5774 5772 5773 5771 5770 5768 5763 5760 5756 5752 5747 5741 5736 5731 5727 5722 5717 5714 5711 5709 5708 5708 5709
5743 5743 5746 5756 5763 5768 5764 5762 5766 5770 5770 5769 5770 5765 5765 5765 5766 5766 5765 5763 5762 5763 5764 5768 5768 5767 5767 5768 5767 5765 5763 5761 5758 5754 5750 5746 5742 5734 5729 5726 5719 5713 5709 5705 5702 5699 5698 5699 5700
5731 5735 5744 5748 5755 5755 5753 5751 5757 5764 5761 5762 5757 5754 5758 5755 5754 5755 5754 5754 5754 5757 5758 5760 5761 5761 5763 5763 5761 5759 5757 5754 5753 5748 5743 5740 5735 5728 5723 5718 5711 5706 5702 5698 5695 5693 5691 5691 5692
5719 5732 5737 5740 5742 5741 5749 5741 5751 5752 5752 5749 5750 5747 5748 5746 5745 5746 5745 5746 5747 5752 5753 5755 5756 5757 5757 5756 5755 5753 5752 5748 5746 5741 5737 5732 5729 5724 5718 5711 5707 5703 5700 5694 5690 5686 5684 5684 5686
5716 5723 5725 5730 5731 5735 5738 5739 5745 5746 5744 5745 5743 5742 5738 5737 5736 5737 5738 5738 5743 5746 5749 5750 5751 5752 5751 5750 5749 5748 5745 5743 5739 5736 5732 5726 5721 5717 5711 5708 5705 5702 5698 5693 5688 5683 5681 5680 5681
5702 5707 5715 5721 5725 5721 5735 5734 5736 5743 5738 5739 5738 5736 5734 5732 5731 5732 5732 5734 5740 5742 5744 5745 5746 5747 5746 5745 5744 5742 5739 5737 5734 5730 5727 5722 5717 5713 5709 5706 5703 5700 5697 5693 5689 5684 5681 5679 5679
5686 5695 5704 5710 5712 5719 5732 5725 5730 5735 5734 5733 5733 5731 5730 5727 5728 5729 5731 5734 5736 5739 5740 5741 5742 5741 5741 5740 5739 5737 5734 5731 5728 5725 5723 5717 5713 5710 5707 5705 5702 5699 5696 5694 5690 5685 5682 5681 5681
5672 5684 5692 5700 5709 5717 5723 5720 5728 5727 5728 5729 5728 5728 5727 5728 5727 5728 5730 5733 5734 5735 5736 5737 5737 5736 5735 5734 5734 5732 5729 5726 5724 5719 5718 5713 5711 5708 5706 5703 5701 5698 5697 5694 5692 5689 5686 5684 5684
5662 5668 5692 5698 5707 5712 5720 5722 5722 5724 5725 5725 5725 5726 5725 5726 5726 5728 5729 5729 5731 5732 5733 5732 5732 5731 5731 5731 5730 5728 5725 5723 5721 5716 5714 5711 5708 5706 5704 5702 5700 5699 5697 5696 5693 5690 5688 5687 5687
5646 5670 5677 5685 5696 5706 5714 5721 5720 5721 5722 5722 5724 5723 5723 5723 5724 5725 5726 5728 5729 5729 5729 5728 5728 5728 5728 5727 5726 5723 5721 5719 5716 5714 5710 5709 5707 5705 5704 5701 5700 5700 5698 5697 5695 5692 5689 5687 5687
5637 5648 5665 5684 5691 5701 5711 5719 5717 5717 5717 5721 5719 5719 5722 5722 5722 5723 5724 5725 5726 5726 5725 5726 5725 5725 5724 5723 5722 5720 5718 5716 5713 5711 5709 5707 5706 5703 5702 5700 5701 5700 5700 5699 5696 5693 5692 5689 5689
5632 5646 5657 5667 5680 5692 5704 5713 5708 5713 5715 5717 5716 5717 5720 5720 5721 5721 5722 5723 5723 5722 5722 5723 5723 5722 5721 5720 5719 5716 5716 5713 5712 5709 5707 5705 5704 5702 5701 5701 5701 5702 5701 5700 5697 5696 5694 5692 5692